,,PressureMeas_1m,,PRMeasQMR101_1,,RHStat155_1m_1,,SRMeasQMS101R_1m,,TAStat155_1m_1,,GenWind_1,,GenWind_1,
2018-12-14, 00:00:06,VALID,920.059,VALID,0.0,VALID,98.866,VALID,0.058,VALID,18.097,INVALID,360.0,VALID,0.0,
2018-12-14, 00:01:06,VALID,920.065,VALID,0.0,VALID,98.878,VALID,0.058,VALID,18.107,INVALID,360.0,VALID,0.0,
2018-12-14, 00:02:06,VALID,920.056,VALID,0.0,VALID,98.878,VALID,0.036,VALID,18.132,INVALID,360.0,VALID,0.0,
2018-12-14, 00:03:06,VALID,920.052,VALID,0.0,VALID,98.897,VALID,0.052,VALID,18.144,INVALID,360.0,VALID,0.0,
2018-12-14, 00:04:06,VALID,920.046,VALID,0.0,VALID,98.916,VALID,0.052,VALID,18.144,INVALID,360.0,VALID,0.0,
2018-12-14, 00:05:06,VALID,920.05,VALID,0.0,VALID,98.934,VALID,0.048,VALID,18.168,INVALID,360.0,VALID,0.0,
2018-12-14, 00:06:06,VALID,920.046,VALID,0.0,VALID,98.946,VALID,0.044,VALID,18.205,INVALID,360.0,VALID,0.0,
2018-12-14, 00:07:06,VALID,920.066,VALID,0.0,VALID,99.005,VALID,0.053,VALID,18.253,INVALID,360.0,VALID,0.0,
2018-12-14, 00:08:06,VALID,920.057,VALID,0.0,VALID,98.948,VALID,0.047,VALID,18.215,INVALID,360.0,VALID,0.0,
2018-12-14, 00:09:06,VALID,920.042,VALID,0.0,VALID,98.937,VALID,0.039,VALID,18.191,INVALID,360.0,VALID,0.0,
2018-12-14, 00:10:06,VALID,920.027,VALID,0.0,VALID,98.937,VALID,0.029,VALID,18.154,INVALID,360.0,VALID,0.0,
2018-12-14, 00:11:06,VALID,920.028,VALID,0.0,VALID,98.91,VALID,0.01,VALID,18.105,INVALID,360.0,VALID,0.0,
2018-12-14, 00:12:06,VALID,920.033,VALID,0.0,VALID,98.874,VALID,0.002,VALID,18.07,INVALID,360.0,VALID,0.0,
2018-12-14, 00:13:06,VALID,920.041,VALID,0.0,VALID,98.891,VALID,0.015,VALID,18.063,INVALID,360.0,VALID,0.0,
2018-12-14, 00:14:06,VALID,920.035,VALID,0.0,VALID,98.925,VALID,0.0,VALID,18.07,INVALID,360.0,VALID,0.0,
2018-12-14, 00:15:06,VALID,920.066,VALID,0.0,VALID,98.992,VALID,0.008,VALID,18.122,INVALID,360.0,VALID,0.0,
2018-12-14, 00:16:06,VALID,920.04,VALID,0.0,VALID,99.031,VALID,-0.003,VALID,18.157,INVALID,360.0,VALID,0.0,
2018-12-14, 00:17:06,VALID,920.027,VALID,0.0,VALID,98.96,VALID,-0.004,VALID,18.117,INVALID,360.0,VALID,0.0,
2018-12-14, 00:18:06,VALID,920.056,VALID,0.0,VALID,99.019,VALID,0.019,VALID,18.154,INVALID,360.0,VALID,0.0,
2018-12-14, 00:19:06,VALID,920.052,VALID,0.0,VALID,99.082,VALID,0.013,VALID,18.189,INVALID,360.0,VALID,0.0,
2018-12-14, 00:20:06,VALID,920.049,VALID,0.0,VALID,99.063,VALID,0.007,VALID,18.222,INVALID,360.0,VALID,0.0,
2018-12-14, 00:21:06,VALID,920.047,VALID,0.0,VALID,99.116,VALID,0.001,VALID,18.25,INVALID,360.0,VALID,0.0,
2018-12-14, 00:22:06,VALID,920.046,VALID,0.0,VALID,99.138,VALID,0.006,VALID,18.291,INVALID,360.0,VALID,0.0,
2018-12-14, 00:23:06,VALID,920.03,VALID,0.0,VALID,99.139,VALID,0.004,VALID,18.308,INVALID,360.0,VALID,0.0,
2018-12-14, 00:24:06,VALID,920.047,VALID,0.0,VALID,99.125,VALID,0.01,VALID,18.272,INVALID,360.0,VALID,0.0,
2018-12-14, 00:25:06,VALID,920.037,VALID,0.0,VALID,99.087,VALID,0.038,VALID,18.234,INVALID,360.0,VALID,0.0,
2018-12-14, 00:26:06,VALID,920.039,VALID,0.0,VALID,99.082,VALID,0.057,VALID,18.216,INVALID,360.0,VALID,0.0,
2018-12-14, 00:27:06,VALID,920.005,VALID,0.0,VALID,99.079,VALID,0.03,VALID,18.192,INVALID,360.0,VALID,0.0,
2018-12-14, 00:28:06,VALID,920.026,VALID,0.0,VALID,99.018,VALID,0.052,VALID,18.145,INVALID,360.0,VALID,0.0,
2018-12-14, 00:29:06,VALID,920.034,VALID,0.0,VALID,99.03,VALID,0.05,VALID,18.136,INVALID,360.0,VALID,0.0,
2018-12-14, 00:30:06,VALID,920.043,VALID,0.0,VALID,99.049,VALID,0.044,VALID,18.136,INVALID,360.0,VALID,0.0,
2018-12-14, 00:31:06,VALID,920.034,VALID,0.0,VALID,99.014,VALID,0.04,VALID,18.085,INVALID,360.0,VALID,0.0,
2018-12-14, 00:32:06,VALID,920.038,VALID,0.0,VALID,99.045,VALID,0.043,VALID,18.108,INVALID,360.0,VALID,0.0,
2018-12-14, 00:33:06,VALID,920.021,VALID,0.0,VALID,99.068,VALID,0.043,VALID,18.137,INVALID,360.0,VALID,0.0,
2018-12-14, 00:34:06,VALID,920.046,VALID,0.0,VALID,99.113,VALID,0.04,VALID,18.206,INVALID,360.0,VALID,0.0,
2018-12-14, 00:35:06,VALID,920.048,VALID,0.0,VALID,99.092,VALID,0.049,VALID,18.153,INVALID,360.0,VALID,0.0,
2018-12-14, 00:36:06,VALID,920.056,VALID,0.0,VALID,99.036,VALID,0.046,VALID,18.09,INVALID,360.0,VALID,0.0,
2018-12-14, 00:37:06,VALID,920.065,VALID,0.0,VALID,99.046,VALID,0.043,VALID,18.125,INVALID,360.0,VALID,0.0,
2018-12-14, 00:38:06,VALID,920.062,VALID,0.0,VALID,99.08,VALID,0.059,VALID,18.147,INVALID,360.0,VALID,0.0,
2018-12-14, 00:39:06,VALID,920.072,VALID,0.0,VALID,99.061,VALID,0.056,VALID,18.162,INVALID,360.0,VALID,0.0,
2018-12-14, 00:40:06,VALID,920.048,VALID,0.0,VALID,99.108,VALID,0.031,VALID,18.202,INVALID,360.0,VALID,0.0,
2018-12-14, 00:41:06,VALID,920.0,VALID,0.0,VALID,99.106,VALID,0.023,VALID,18.233,INVALID,360.0,VALID,0.0,
2018-12-14, 00:42:06,VALID,919.99,VALID,0.0,VALID,99.099,VALID,0.024,VALID,18.219,INVALID,360.0,VALID,0.0,
2018-12-14, 00:43:06,VALID,919.99,VALID,0.0,VALID,99.128,VALID,0.015,VALID,18.253,INVALID,360.0,VALID,0.0,
2018-12-14, 00:44:06,VALID,919.967,VALID,0.0,VALID,99.141,VALID,0.021,VALID,18.28,INVALID,360.0,VALID,0.0,
2018-12-14, 00:45:06,VALID,919.955,VALID,0.0,VALID,99.146,VALID,0.019,VALID,18.271,INVALID,360.0,VALID,0.0,
2018-12-14, 00:46:06,VALID,919.936,VALID,0.0,VALID,99.127,VALID,0.028,VALID,18.27,INVALID,360.0,VALID,0.0,
2018-12-14, 00:47:06,VALID,919.93,VALID,0.0,VALID,99.184,VALID,0.017,VALID,18.323,INVALID,360.0,VALID,0.0,
2018-12-14, 00:48:06,VALID,919.926,VALID,0.0,VALID,99.08,VALID,-0.006,VALID,18.254,INVALID,360.0,VALID,0.0,
2018-12-14, 00:49:06,VALID,919.877,VALID,0.0,VALID,99.102,VALID,0.006,VALID,18.212,INVALID,360.0,VALID,0.0,
2018-12-14, 00:50:06,VALID,919.874,VALID,0.0,VALID,99.062,VALID,0.019,VALID,18.148,INVALID,360.0,VALID,0.0,
2018-12-14, 00:51:06,VALID,919.869,VALID,0.0,VALID,99.132,VALID,0.01,VALID,18.189,INVALID,360.0,VALID,0.0,
2018-12-14, 00:52:06,VALID,919.871,VALID,0.0,VALID,99.081,VALID,0.003,VALID,18.157,INVALID,360.0,VALID,0.0,
2018-12-14, 00:53:06,VALID,919.858,VALID,0.0,VALID,99.071,VALID,0.015,VALID,18.127,INVALID,360.0,VALID,0.0,
2018-12-14, 00:54:06,VALID,919.838,VALID,0.0,VALID,99.139,VALID,0.017,VALID,18.187,INVALID,360.0,VALID,0.0,
2018-12-14, 00:55:06,VALID,919.837,VALID,0.0,VALID,99.127,VALID,0.023,VALID,18.217,INVALID,360.0,VALID,0.0,
2018-12-14, 00:56:06,VALID,919.814,VALID,0.0,VALID,99.115,VALID,-0.008,VALID,18.227,INVALID,360.0,VALID,0.0,
2018-12-14, 00:57:06,VALID,919.792,VALID,0.0,VALID,99.122,VALID,-0.014,VALID,18.226,INVALID,360.0,VALID,0.0,
2018-12-14, 00:58:06,VALID,919.775,VALID,0.0,VALID,99.12,VALID,0.006,VALID,18.198,INVALID,360.0,VALID,0.0,
2018-12-14, 00:59:06,VALID,919.727,VALID,0.0,VALID,99.109,VALID,0.014,VALID,18.171,INVALID,360.0,VALID,0.0,
2018-12-14, 01:00:06,VALID,919.722,VALID,0.0,VALID,99.082,VALID,0.011,VALID,18.15,INVALID,360.0,VALID,0.0,
2018-12-14, 01:01:06,VALID,919.713,VALID,0.0,VALID,99.143,VALID,-0.009,VALID,18.213,INVALID,360.0,VALID,0.0,
2018-12-14, 01:02:06,VALID,919.711,VALID,0.0,VALID,99.128,VALID,-0.002,VALID,18.219,INVALID,360.0,VALID,0.0,
2018-12-14, 01:03:06,VALID,919.67,VALID,0.0,VALID,99.095,VALID,-0.002,VALID,18.184,INVALID,360.0,VALID,0.0,
2018-12-14, 01:04:06,VALID,919.652,VALID,0.0,VALID,99.059,VALID,-0.001,VALID,18.137,INVALID,360.0,VALID,0.0,
2018-12-14, 01:05:06,VALID,919.648,VALID,0.0,VALID,99.05,VALID,0.0,VALID,18.104,INVALID,360.0,VALID,0.0,
2018-12-14, 01:06:06,VALID,919.647,VALID,0.0,VALID,99.069,VALID,0.002,VALID,18.11,INVALID,360.0,VALID,0.0,
2018-12-14, 01:07:06,VALID,919.608,VALID,0.0,VALID,99.062,VALID,0.012,VALID,18.113,INVALID,360.0,VALID,0.0,
2018-12-14, 01:08:06,VALID,919.622,VALID,0.0,VALID,99.048,VALID,0.019,VALID,18.094,INVALID,360.0,VALID,0.0,
2018-12-14, 01:09:06,VALID,919.592,VALID,0.0,VALID,99.117,VALID,0.006,VALID,18.135,INVALID,360.0,VALID,0.0,
2018-12-14, 01:10:06,VALID,919.587,VALID,0.0,VALID,99.12,VALID,-0.001,VALID,18.139,INVALID,360.0,VALID,0.0,
2018-12-14, 01:11:06,VALID,919.569,VALID,0.0,VALID,99.08,VALID,0.004,VALID,18.124,INVALID,360.0,VALID,0.0,
2018-12-14, 01:12:06,VALID,919.553,VALID,0.0,VALID,99.123,VALID,0.014,VALID,18.134,INVALID,360.0,VALID,0.0,
2018-12-14, 01:13:06,VALID,919.56,VALID,0.0,VALID,99.146,VALID,0.02,VALID,18.18,INVALID,360.0,VALID,0.0,
2018-12-14, 01:14:06,VALID,919.569,VALID,0.0,VALID,99.078,VALID,0.025,VALID,18.143,INVALID,360.0,VALID,0.0,
2018-12-14, 01:15:06,VALID,919.552,VALID,0.0,VALID,99.075,VALID,0.023,VALID,18.131,INVALID,360.0,VALID,0.0,
2018-12-14, 01:16:06,VALID,919.547,VALID,0.0,VALID,99.056,VALID,0.029,VALID,18.107,INVALID,360.0,VALID,0.0,
2018-12-14, 01:17:06,VALID,919.523,VALID,0.0,VALID,99.067,VALID,0.024,VALID,18.112,INVALID,360.0,VALID,0.0,
2018-12-14, 01:18:06,VALID,919.531,VALID,0.0,VALID,99.097,VALID,0.021,VALID,18.132,INVALID,360.0,VALID,0.0,
2018-12-14, 01:19:06,VALID,919.519,VALID,0.0,VALID,99.074,VALID,0.016,VALID,18.132,INVALID,360.0,VALID,0.0,
2018-12-14, 01:20:06,VALID,919.527,VALID,0.0,VALID,99.113,VALID,0.038,VALID,18.174,INVALID,360.0,VALID,0.0,
2018-12-14, 01:21:06,VALID,919.54,VALID,0.0,VALID,99.114,VALID,0.026,VALID,18.203,INVALID,360.0,VALID,0.0,
2018-12-14, 01:22:06,VALID,919.533,VALID,0.0,VALID,99.123,VALID,0.022,VALID,18.199,INVALID,360.0,VALID,0.0,
2018-12-14, 01:23:06,VALID,919.523,VALID,0.0,VALID,99.12,VALID,0.023,VALID,18.176,INVALID,360.0,VALID,0.0,
2018-12-14, 01:24:06,VALID,919.521,VALID,0.0,VALID,99.096,VALID,0.036,VALID,18.187,INVALID,360.0,VALID,0.0,
2018-12-14, 01:25:06,VALID,919.512,VALID,0.0,VALID,99.18,VALID,0.011,VALID,18.278,INVALID,360.0,VALID,0.0,
2018-12-14, 01:26:06,VALID,919.484,VALID,0.0,VALID,99.258,VALID,-0.012,VALID,18.377,INVALID,360.0,VALID,0.0,
2018-12-14, 01:27:06,VALID,919.465,VALID,0.0,VALID,99.161,VALID,-0.027,VALID,18.327,INVALID,360.0,VALID,0.0,
2018-12-14, 01:28:06,VALID,919.444,VALID,0.0,VALID,99.118,VALID,-0.032,VALID,18.263,INVALID,360.0,VALID,0.0,
2018-12-14, 01:29:06,VALID,919.43,VALID,0.0,VALID,99.111,VALID,-0.026,VALID,18.25,INVALID,360.0,VALID,0.0,
2018-12-14, 01:30:06,VALID,919.429,VALID,0.0,VALID,99.123,VALID,-0.023,VALID,18.256,INVALID,360.0,VALID,0.0,
2018-12-14, 01:31:06,VALID,919.408,VALID,0.0,VALID,99.129,VALID,-0.015,VALID,18.252,INVALID,360.0,VALID,0.0,
2018-12-14, 01:32:06,VALID,919.435,VALID,0.0,VALID,99.129,VALID,-0.027,VALID,18.257,INVALID,360.0,VALID,0.0,
2018-12-14, 01:33:06,VALID,919.429,VALID,0.0,VALID,99.114,VALID,-0.038,VALID,18.229,INVALID,360.0,VALID,0.0,
2018-12-14, 01:34:06,VALID,919.509,VALID,0.0,VALID,99.098,VALID,-0.031,VALID,18.242,INVALID,360.0,VALID,0.0,
2018-12-14, 01:35:06,VALID,919.542,VALID,0.0,VALID,99.136,VALID,-0.016,VALID,18.261,INVALID,360.0,VALID,0.0,
2018-12-14, 01:36:06,VALID,919.561,VALID,0.0,VALID,99.09,VALID,-0.025,VALID,18.219,INVALID,360.0,VALID,0.0,
2018-12-14, 01:37:06,VALID,919.578,VALID,0.0,VALID,99.098,VALID,-0.014,VALID,18.222,INVALID,360.0,VALID,0.0,
2018-12-14, 01:38:06,VALID,919.571,VALID,0.0,VALID,99.09,VALID,-0.009,VALID,18.19,INVALID,360.0,VALID,0.0,
2018-12-14, 01:39:06,VALID,919.542,VALID,0.0,VALID,99.125,VALID,-0.019,VALID,18.199,INVALID,360.0,VALID,0.0,
2018-12-14, 01:40:06,VALID,919.579,VALID,0.0,VALID,99.154,VALID,0.015,VALID,18.212,INVALID,360.0,VALID,0.0,
2018-12-14, 01:41:06,VALID,919.649,VALID,0.0,VALID,99.123,VALID,0.078,VALID,18.201,INVALID,360.0,VALID,0.0,
2018-12-14, 01:42:06,VALID,919.696,VALID,0.0,VALID,99.142,VALID,0.076,VALID,18.19,INVALID,360.0,VALID,0.0,
2018-12-14, 01:43:06,VALID,919.703,VALID,0.0,VALID,99.119,VALID,0.056,VALID,18.18,INVALID,360.0,VALID,0.0,
2018-12-14, 01:44:06,VALID,919.699,VALID,0.0,VALID,99.156,VALID,0.064,VALID,18.197,INVALID,360.0,VALID,0.0,
2018-12-14, 01:45:06,VALID,919.603,VALID,0.0,VALID,99.161,VALID,0.087,VALID,18.225,INVALID,360.0,VALID,0.0,
2018-12-14, 01:46:06,VALID,919.56,VALID,0.0,VALID,99.161,VALID,0.086,VALID,18.212,INVALID,360.0,VALID,0.0,
2018-12-14, 01:47:06,VALID,919.583,VALID,0.0,VALID,99.16,VALID,0.076,VALID,18.209,INVALID,360.0,VALID,0.0,
2018-12-14, 01:48:06,VALID,919.614,VALID,0.0,VALID,99.178,VALID,0.066,VALID,18.219,INVALID,360.0,VALID,0.0,
2018-12-14, 01:49:06,VALID,919.61,VALID,0.0,VALID,99.176,VALID,0.063,VALID,18.196,INVALID,360.0,VALID,0.0,
2018-12-14, 01:50:06,VALID,919.582,VALID,0.0,VALID,99.173,VALID,0.085,VALID,18.18,INVALID,360.0,VALID,0.0,
2018-12-14, 01:51:06,VALID,919.568,VALID,0.0,VALID,99.167,VALID,0.059,VALID,18.196,INVALID,360.0,VALID,0.0,
2018-12-14, 01:52:06,VALID,919.554,VALID,0.0,VALID,99.219,VALID,0.08,VALID,18.26,INVALID,360.0,VALID,0.0,
2018-12-14, 01:53:06,VALID,919.482,VALID,0.0,VALID,99.182,VALID,0.064,VALID,18.232,INVALID,360.0,VALID,0.0,
2018-12-14, 01:54:06,VALID,919.462,VALID,0.0,VALID,99.194,VALID,0.068,VALID,18.227,INVALID,360.0,VALID,0.0,
2018-12-14, 01:55:06,VALID,919.494,VALID,0.0,VALID,99.222,VALID,0.041,VALID,18.27,INVALID,360.0,VALID,0.0,
2018-12-14, 01:56:06,VALID,919.458,VALID,0.0,VALID,99.212,VALID,-0.023,VALID,18.267,INVALID,360.0,VALID,0.0,
2018-12-14, 01:57:06,VALID,919.445,VALID,0.0,VALID,99.198,VALID,-0.003,VALID,18.263,INVALID,360.0,VALID,0.0,
2018-12-14, 01:58:06,VALID,919.408,VALID,0.0,VALID,99.225,VALID,0.016,VALID,18.284,INVALID,360.0,VALID,0.0,
2018-12-14, 01:59:06,VALID,919.422,VALID,0.0,VALID,99.188,VALID,0.012,VALID,18.259,INVALID,360.0,VALID,0.0,
2018-12-14, 02:00:06,VALID,919.394,VALID,0.0,VALID,99.171,VALID,-0.002,VALID,18.27,INVALID,360.0,VALID,0.0,
2018-12-14, 02:01:06,VALID,919.364,VALID,0.0,VALID,99.109,VALID,-0.007,VALID,18.279,INVALID,360.0,VALID,0.0,
2018-12-14, 02:02:06,VALID,919.356,VALID,0.0,VALID,99.05,VALID,-0.016,VALID,18.346,INVALID,360.0,VALID,0.0,
2018-12-14, 02:03:06,VALID,919.35,VALID,0.0,VALID,98.939,VALID,0.01,VALID,18.371,INVALID,360.0,VALID,0.0,
2018-12-14, 02:04:06,VALID,919.349,VALID,0.0,VALID,98.789,VALID,0.009,VALID,18.351,INVALID,360.0,VALID,0.0,
2018-12-14, 02:05:06,VALID,919.306,VALID,0.0,VALID,98.712,VALID,0.012,VALID,18.363,INVALID,360.0,VALID,0.0,
2018-12-14, 02:06:06,VALID,919.31,VALID,0.0,VALID,98.691,VALID,0.012,VALID,18.391,INVALID,360.0,VALID,0.0,
2018-12-14, 02:07:06,VALID,919.294,VALID,0.0,VALID,98.706,VALID,-0.017,VALID,18.408,INVALID,360.0,VALID,0.0,
2018-12-14, 02:08:06,VALID,919.291,VALID,0.0,VALID,98.678,VALID,-0.004,VALID,18.371,INVALID,360.0,VALID,0.0,
2018-12-14, 02:09:06,VALID,919.262,VALID,0.0,VALID,98.691,VALID,-0.004,VALID,18.357,INVALID,360.0,VALID,0.0,
2018-12-14, 02:10:06,VALID,919.221,VALID,0.0,VALID,98.675,VALID,-0.002,VALID,18.341,INVALID,360.0,VALID,0.0,
2018-12-14, 02:11:06,VALID,919.223,VALID,0.0,VALID,98.716,VALID,-0.01,VALID,18.357,INVALID,360.0,VALID,0.0,
2018-12-14, 02:12:06,VALID,919.202,VALID,0.0,VALID,98.782,VALID,-0.008,VALID,18.374,INVALID,360.0,VALID,0.0,
2018-12-14, 02:13:06,VALID,919.182,VALID,0.0,VALID,98.684,VALID,0.008,VALID,18.348,INVALID,360.0,VALID,0.0,
2018-12-14, 02:14:06,VALID,919.19,VALID,0.0,VALID,98.706,VALID,0.01,VALID,18.388,INVALID,360.0,VALID,0.0,
2018-12-14, 02:15:06,VALID,919.182,VALID,0.0,VALID,98.652,VALID,0.01,VALID,18.376,INVALID,360.0,VALID,0.0,
2018-12-14, 02:16:06,VALID,919.162,VALID,0.0,VALID,98.605,VALID,0.011,VALID,18.346,INVALID,360.0,VALID,0.0,
2018-12-14, 02:17:06,VALID,919.185,VALID,0.0,VALID,98.642,VALID,0.019,VALID,18.359,INVALID,360.0,VALID,0.0,
2018-12-14, 02:18:06,VALID,919.125,VALID,0.0,VALID,98.663,VALID,0.016,VALID,18.356,INVALID,360.0,VALID,0.0,
2018-12-14, 02:19:06,VALID,919.107,VALID,0.0,VALID,98.702,VALID,0.003,VALID,18.38,INVALID,360.0,VALID,0.0,
2018-12-14, 02:20:06,VALID,919.113,VALID,0.0,VALID,98.799,VALID,0.008,VALID,18.431,INVALID,360.0,VALID,0.0,
2018-12-14, 02:21:06,VALID,919.113,VALID,0.0,VALID,98.74,VALID,0.008,VALID,18.381,INVALID,360.0,VALID,0.0,
2018-12-14, 02:22:06,VALID,919.109,VALID,0.0,VALID,98.67,VALID,0.03,VALID,18.346,INVALID,360.0,VALID,0.0,
2018-12-14, 02:23:06,VALID,919.113,VALID,0.0,VALID,98.685,VALID,0.012,VALID,18.383,INVALID,360.0,VALID,0.0,
2018-12-14, 02:24:06,VALID,919.115,VALID,0.0,VALID,98.752,VALID,0.004,VALID,18.423,VALID,345.0,VALID,0.0,
2018-12-14, 02:25:06,VALID,919.117,VALID,0.0,VALID,98.724,VALID,0.014,VALID,18.393,INVALID,360.0,VALID,0.0,
2018-12-14, 02:26:06,VALID,919.11,VALID,0.0,VALID,98.727,VALID,0.002,VALID,18.371,INVALID,360.0,VALID,0.0,
2018-12-14, 02:27:06,VALID,919.121,VALID,0.0,VALID,98.732,VALID,-0.018,VALID,18.362,INVALID,360.0,VALID,0.0,
2018-12-14, 02:28:06,VALID,919.088,VALID,0.0,VALID,98.767,VALID,-0.018,VALID,18.385,INVALID,360.0,VALID,0.0,
2018-12-14, 02:29:06,VALID,919.085,VALID,0.0,VALID,98.761,VALID,-0.029,VALID,18.39,INVALID,360.0,VALID,0.0,
2018-12-14, 02:30:06,VALID,919.075,VALID,0.0,VALID,98.698,VALID,-0.019,VALID,18.397,INVALID,360.0,VALID,0.0,
2018-12-14, 02:31:06,VALID,919.059,VALID,0.0,VALID,98.679,VALID,0.0,VALID,18.411,INVALID,360.0,VALID,0.0,
2018-12-14, 02:32:06,VALID,919.065,VALID,0.0,VALID,98.649,VALID,-0.014,VALID,18.412,INVALID,360.0,VALID,0.0,
2018-12-14, 02:33:06,VALID,919.061,VALID,0.0,VALID,98.681,VALID,0.003,VALID,18.434,INVALID,360.0,VALID,0.0,
2018-12-14, 02:34:06,VALID,919.067,VALID,0.0,VALID,98.73,VALID,-0.011,VALID,18.464,INVALID,360.0,VALID,0.0,
2018-12-14, 02:35:06,VALID,919.068,VALID,0.0,VALID,98.793,VALID,-0.01,VALID,18.498,INVALID,360.0,VALID,0.0,
2018-12-14, 02:36:06,VALID,919.045,VALID,0.0,VALID,98.768,VALID,-0.011,VALID,18.459,INVALID,360.0,VALID,0.0,
2018-12-14, 02:37:06,VALID,919.005,VALID,0.0,VALID,98.728,VALID,-0.021,VALID,18.445,INVALID,360.0,VALID,0.0,
2018-12-14, 02:38:06,VALID,919.001,VALID,0.0,VALID,98.701,VALID,0.004,VALID,18.438,INVALID,360.0,VALID,0.0,
2018-12-14, 02:39:06,VALID,919.009,VALID,0.0,VALID,98.757,VALID,-0.007,VALID,18.474,INVALID,360.0,VALID,0.0,
2018-12-14, 02:40:06,VALID,919.008,VALID,0.0,VALID,98.773,VALID,0.018,VALID,18.481,INVALID,360.0,VALID,0.0,
2018-12-14, 02:41:06,VALID,918.986,VALID,0.0,VALID,98.736,VALID,0.047,VALID,18.479,INVALID,360.0,VALID,0.0,
2018-12-14, 02:42:06,VALID,918.99,VALID,0.0,VALID,98.788,VALID,0.04,VALID,18.506,INVALID,360.0,VALID,0.0,
2018-12-14, 02:43:06,VALID,918.992,VALID,0.0,VALID,98.744,VALID,0.032,VALID,18.507,INVALID,360.0,VALID,0.0,
2018-12-14, 02:44:06,VALID,918.973,VALID,0.0,VALID,98.65,VALID,0.035,VALID,18.52,INVALID,360.0,VALID,0.0,
2018-12-14, 02:45:06,VALID,918.974,VALID,0.0,VALID,98.582,VALID,0.042,VALID,18.506,INVALID,360.0,VALID,0.0,
2018-12-14, 02:46:06,VALID,918.946,VALID,0.0,VALID,98.526,VALID,0.043,VALID,18.523,INVALID,360.0,VALID,0.0,
2018-12-14, 02:47:06,VALID,918.941,VALID,0.0,VALID,98.515,VALID,0.048,VALID,18.536,INVALID,360.0,VALID,0.0,
2018-12-14, 02:48:06,VALID,918.934,VALID,0.0,VALID,98.483,VALID,0.037,VALID,18.546,INVALID,360.0,VALID,0.0,
2018-12-14, 02:49:06,VALID,918.921,VALID,0.0,VALID,98.45,VALID,0.05,VALID,18.545,INVALID,360.0,VALID,0.0,
2018-12-14, 02:50:06,VALID,918.928,VALID,0.0,VALID,98.474,VALID,0.054,VALID,18.569,INVALID,360.0,VALID,0.0,
2018-12-14, 02:51:06,VALID,918.896,VALID,0.0,VALID,98.432,VALID,0.03,VALID,18.544,INVALID,360.0,VALID,0.0,
2018-12-14, 02:52:06,VALID,918.872,VALID,0.0,VALID,98.488,VALID,0.034,VALID,18.562,INVALID,360.0,VALID,0.0,
2018-12-14, 02:53:06,VALID,918.885,VALID,0.0,VALID,98.535,VALID,0.059,VALID,18.54,INVALID,360.0,VALID,0.0,
2018-12-14, 02:54:06,VALID,918.856,VALID,0.0,VALID,98.534,VALID,0.045,VALID,18.522,INVALID,360.0,VALID,0.0,
2018-12-14, 02:55:06,VALID,918.826,VALID,0.0,VALID,98.559,VALID,0.041,VALID,18.497,INVALID,360.0,VALID,0.0,
2018-12-14, 02:56:06,VALID,918.813,VALID,0.0,VALID,98.56,VALID,0.03,VALID,18.46,INVALID,360.0,VALID,0.0,
2018-12-14, 02:57:06,VALID,918.808,VALID,0.0,VALID,98.628,VALID,0.018,VALID,18.462,INVALID,360.0,VALID,0.0,
2018-12-14, 02:58:06,VALID,918.793,VALID,0.0,VALID,98.686,VALID,0.026,VALID,18.47,INVALID,360.0,VALID,0.0,
2018-12-14, 02:59:06,VALID,918.798,VALID,0.0,VALID,98.713,VALID,0.034,VALID,18.457,INVALID,360.0,VALID,0.0,
2018-12-14, 03:00:06,VALID,918.792,VALID,0.0,VALID,98.78,VALID,0.015,VALID,18.492,INVALID,360.0,VALID,0.0,
2018-12-14, 03:01:06,VALID,918.777,VALID,0.0,VALID,98.8,VALID,0.019,VALID,18.489,INVALID,360.0,VALID,0.0,
2018-12-14, 03:02:06,VALID,918.757,VALID,0.0,VALID,98.805,VALID,0.018,VALID,18.485,INVALID,360.0,VALID,0.0,
2018-12-14, 03:03:06,VALID,918.726,VALID,0.0,VALID,98.831,VALID,0.034,VALID,18.489,INVALID,360.0,VALID,0.0,
2018-12-14, 03:04:06,VALID,918.686,VALID,0.0,VALID,98.865,VALID,0.013,VALID,18.498,INVALID,360.0,VALID,0.0,
2018-12-14, 03:05:06,VALID,918.668,VALID,0.0,VALID,98.865,VALID,0.027,VALID,18.488,INVALID,360.0,VALID,0.0,
2018-12-14, 03:06:06,VALID,918.664,VALID,0.0,VALID,98.85,VALID,-0.001,VALID,18.472,INVALID,360.0,VALID,0.0,
2018-12-14, 03:07:06,VALID,918.699,VALID,0.0,VALID,98.917,VALID,0.008,VALID,18.502,INVALID,360.0,VALID,0.0,
2018-12-14, 03:08:06,VALID,918.709,VALID,0.0,VALID,98.857,VALID,0.044,VALID,18.459,INVALID,360.0,VALID,0.0,
2018-12-14, 03:09:06,VALID,918.681,VALID,0.0,VALID,98.872,VALID,0.016,VALID,18.441,INVALID,360.0,VALID,0.0,
2018-12-14, 03:10:06,VALID,918.645,VALID,0.0,VALID,98.852,VALID,0.0,VALID,18.413,INVALID,360.0,VALID,0.0,
2018-12-14, 03:11:06,VALID,918.643,VALID,0.0,VALID,98.898,VALID,-0.025,VALID,18.434,INVALID,360.0,VALID,0.0,
2018-12-14, 03:12:06,VALID,918.617,VALID,0.0,VALID,98.969,VALID,-0.018,VALID,18.493,INVALID,360.0,VALID,0.0,
2018-12-14, 03:13:06,VALID,918.634,VALID,0.0,VALID,98.957,VALID,-0.011,VALID,18.486,INVALID,360.0,VALID,0.0,
2018-12-14, 03:14:06,VALID,918.647,VALID,0.0,VALID,98.948,VALID,-0.001,VALID,18.474,INVALID,360.0,VALID,0.0,
2018-12-14, 03:15:06,VALID,918.657,VALID,0.0,VALID,98.941,VALID,-0.008,VALID,18.436,INVALID,360.0,VALID,0.0,
2018-12-14, 03:16:06,VALID,918.638,VALID,0.0,VALID,98.935,VALID,-0.004,VALID,18.438,INVALID,360.0,VALID,0.0,
2018-12-14, 03:17:06,VALID,918.634,VALID,0.0,VALID,98.975,VALID,0.007,VALID,18.465,INVALID,360.0,VALID,0.0,
2018-12-14, 03:18:06,VALID,918.626,VALID,0.0,VALID,99.004,VALID,-0.003,VALID,18.526,INVALID,360.0,VALID,0.0,
2018-12-14, 03:19:06,VALID,918.585,VALID,0.0,VALID,99.028,VALID,-0.003,VALID,18.547,INVALID,360.0,VALID,0.0,
2018-12-14, 03:20:06,VALID,918.576,VALID,0.0,VALID,98.996,VALID,-0.004,VALID,18.529,INVALID,360.0,VALID,0.0,
2018-12-14, 03:21:06,VALID,918.536,VALID,0.0,VALID,99.008,VALID,-0.0,VALID,18.529,INVALID,360.0,VALID,0.0,
2018-12-14, 03:22:06,VALID,918.575,VALID,0.0,VALID,99.059,VALID,0.002,VALID,18.561,INVALID,360.0,VALID,0.0,
2018-12-14, 03:23:06,VALID,918.552,VALID,0.0,VALID,98.976,VALID,-0.007,VALID,18.517,INVALID,360.0,VALID,0.0,
2018-12-14, 03:24:06,VALID,918.555,VALID,0.0,VALID,98.945,VALID,-0.008,VALID,18.499,INVALID,360.0,VALID,0.0,
2018-12-14, 03:25:06,VALID,918.562,VALID,0.0,VALID,98.887,VALID,-0.01,VALID,18.483,INVALID,360.0,VALID,0.0,
2018-12-14, 03:26:06,VALID,918.555,VALID,0.0,VALID,98.887,VALID,0.01,VALID,18.47,INVALID,360.0,VALID,0.0,
2018-12-14, 03:27:06,VALID,918.55,VALID,0.0,VALID,98.909,VALID,0.008,VALID,18.466,INVALID,360.0,VALID,0.0,
2018-12-14, 03:28:06,VALID,918.548,VALID,0.0,VALID,98.938,VALID,0.026,VALID,18.456,INVALID,360.0,VALID,0.0,
2018-12-14, 03:29:06,VALID,918.56,VALID,0.0,VALID,98.957,VALID,0.007,VALID,18.474,INVALID,360.0,VALID,0.0,
2018-12-14, 03:30:06,VALID,918.544,VALID,0.0,VALID,99.01,VALID,0.012,VALID,18.498,INVALID,360.0,VALID,0.0,
2018-12-14, 03:31:06,VALID,918.521,VALID,0.0,VALID,99.009,VALID,0.033,VALID,18.51,INVALID,360.0,VALID,0.0,
2018-12-14, 03:32:06,VALID,918.512,VALID,0.0,VALID,98.98,VALID,0.015,VALID,18.474,INVALID,360.0,VALID,0.0,
2018-12-14, 03:33:06,VALID,918.5,VALID,0.0,VALID,98.937,VALID,0.046,VALID,18.393,INVALID,360.0,VALID,0.0,
2018-12-14, 03:34:06,VALID,918.489,VALID,0.0,VALID,98.966,VALID,0.029,VALID,18.394,INVALID,360.0,VALID,0.0,
2018-12-14, 03:35:06,VALID,918.501,VALID,0.0,VALID,98.966,VALID,0.023,VALID,18.376,INVALID,360.0,VALID,0.0,
2018-12-14, 03:36:06,VALID,918.488,VALID,0.0,VALID,98.933,VALID,0.014,VALID,18.368,INVALID,360.0,VALID,0.0,
2018-12-14, 03:37:06,VALID,918.483,VALID,0.0,VALID,98.974,VALID,0.006,VALID,18.373,INVALID,360.0,VALID,0.0,
2018-12-14, 03:38:06,VALID,918.468,VALID,0.0,VALID,98.923,VALID,0.001,VALID,18.336,INVALID,360.0,VALID,0.0,